GW5170 Weather Reports


Display with metric or nautical units.
time (UTC)temp
F
wind
direction
speed
MPH
gust
MPH
rain 1hr
in
rain 24hr
in
rain mn
in
humidity
%
barometer
mb
20260831070133 74 340 1.0 3.0 0.00 0.00 0.00 83 1013.3
20260831065631 74 282 3.0 3.0 0.00 0.00 0.00 83 1013.2
20260831065125 74 235 3.0 4.0 0.00 0.00 0.00 84 1013.3
20260831064625 74 320 1.0 2.0 0.00 0.00 0.00 85 1013.4
20260831064121 74 329 2.0 2.0 0.00 0.00 0.00 85 1013.4
20260831063617 74 305 1.0 1.0 0.00 0.00 0.00 86 1013.5
20260831063112 74 16 2.0 2.0 0.00 0.00 0.00 86 1013.5
20260831062607 74 306 2.0 2.0 0.00 0.00 0.00 87 1013.5
20260831062106 73 250 2.0 2.0 0.00 0.00 0.00 88 1013.6
20260831061604 73 339 2.0 2.0 0.00 0.00 0.00 88 1013.5
20260831061100 73 161 2.0 3.0 0.00 0.00 0.00 88 1013.5
20260831060556 73 11 2.0 2.0 0.00 0.00 0.00 89 1013.5
20260831060050 73 318 1.0 2.0 0.00 0.00 0.00 89 1013.5
20260831055545 73 326 2.0 3.0 0.00 0.00 0.00 88 1013.5
20260831055041 74 345 2.0 2.0 0.00 0.00 0.00 88 1013.6
20260831054540 74 173 3.0 4.0 0.00 0.00 0.00 88 1013.5
20260831054039 74 147 2.0 3.0 0.00 0.00 0.00 88 1013.5
20260831053538 74 301 1.0 2.0 0.00 0.00 0.00 88 1013.7
20260831053033 74 206 4.0 7.0 0.00 0.00 0.00 88 1013.6
20260831052532 74 198 6.0 7.0 0.00 0.00 0.00 88 1013.4
20260831052026 74 328 1.0 2.0 0.00 0.00 0.00 88 1013.4
20260831051524 74 282 4.0 4.0 0.00 0.00 0.00 88 1013.5
20260831051024 74 330 1.0 1.0 0.00 0.00 0.00 88 1013.6
20260831050523 74 214 2.0 4.0 0.00 0.00 0.00 89 1013.5
20260831050022 75 197 3.0 3.0 0.00 0.30 0.30 88 1013.6
20260831045521 75 347 0.0 1.0 0.00 0.30 0.30 88 1013.9
20260831045017 75 325 0.0 1.0 0.00 0.30 0.30 87 1013.9
20260831044512 75 299 2.0 3.0 0.00 0.30 0.30 88 1013.9
20260831044007 75 324 1.0 1.0 0.00 0.30 0.30 88 1013.5
20260831043507 75 101 4.0 6.0 0.00 0.30 0.30 88 1013.7
20260831043002 75 171 3.0 4.0 0.00 0.30 0.30 88 1013.6
20260831042502 75 228 2.0 2.0 0.00 0.30 0.30 89 1013.6
20260831041957 75 92 5.0 7.0 0.00 0.30 0.30 89 1013.7
20260831041452 75 10 2.0 3.0 0.00 0.30 0.30 89 1013.7
20260831040951 75 186 4.0 4.0 0.00 0.30 0.30 89 1013.6
20260831040446 75 24 1.0 2.0 0.00 0.30 0.30 89 1013.9
20260831035943 75 260 4.0 7.0 0.00 0.30 0.30 88 1014.0
20260831035443 75 289 2.0 2.0 0.00 0.30 0.30 89 1014.1
20260831034938 74 350 1.0 2.0 0.00 0.30 0.30 89 1014.2
20260831034433 74 207 3.0 3.0 0.00 0.30 0.30 89 1014.1
20260831033928 74 213 4.0 6.0 0.00 0.30 0.30 90 1013.7
20260831033424 74 234 3.0 4.0 0.00 0.30 0.30 89 1013.9
20260831032920 74 210 5.0 6.0 0.00 0.30 0.30 89 1014.1
20260831032419 75 171 3.0 6.0 0.00 0.30 0.30 89 1014.2
20260831031915 75 343 3.0 4.0 0.00 0.30 0.30 88 1014.3
20260831031414 75 36 2.0 2.0 0.00 0.30 0.30 87 1014.5
20260831030908 75 95 3.0 4.0 0.00 0.30 0.30 87 1014.5
20260831030408 76 189 4.0 4.0 0.00 0.30 0.30 86 1014.3
20260831025906 76 236 3.0 3.0 0.00 0.30 0.30 86 1014.4
20260831025406 76 186 3.0 3.0 0.00 0.30 0.30 85 1014.4
20260831024902 75 159 3.0 3.0 0.00 0.30 0.30 86 1014.5
20260831024401 75 146 4.0 6.0 0.00 0.30 0.30 86 1014.4
20260831023901 75 359 1.0 2.0 0.00 0.30 0.30 87 1014.5
20260831023359 74 250 3.0 3.0 0.00 0.30 0.30 88 1014.5
20260831022855 74 3 0.0 0.0 0.00 0.30 0.30 89 1014.6
20260831022353 74 346 1.0 1.0 0.00 0.30 0.30 88 1014.6
20260831021848 74 353 0.0 1.0 0.00 0.30 0.30 88 1014.7
20260831021348 74 2 1.0 1.0 0.00 0.30 0.30 88 1014.3
20260831020844 74 344 0.0 1.0 0.00 0.30 0.30 88 1014.3
20260831020344 74 351 0.0 1.0 0.00 0.30 0.30 88 1014.5
20260831015839 74 8 1.0 2.0 0.00 0.30 0.30 88 1014.4
20260831015335 74 347 2.0 2.0 0.00 0.30 0.30 88 1014.4
20260831014835 74 92 1.0 2.0 0.00 0.30 0.30 88 1014.4
20260831014330 74 349 2.0 2.0 0.00 0.30 0.30 88 1014.2
20260831013826 74 40 2.0 3.0 0.00 0.30 0.30 88 1014.2
20260831013325 74 5 1.0 1.0 0.00 0.30 0.30 88 1014.2
20260831012820 74 75 2.0 3.0 0.00 0.30 0.30 88 1014.0
20260831012316 74 350 2.0 3.0 0.00 0.30 0.30 88 1014.0
20260831011815 73 91 4.0 4.0 0.00 0.30 0.30 89 1013.7
20260831011310 73 217 2.0 3.0 0.00 0.30 0.30 89 1013.9
20260831010801 73 84 3.0 3.0 0.00 0.30 0.30 89 1013.9
20260831010300 73 83 3.0 3.0 0.00 0.30 0.30 89 1014.0
20260831005756 73 43 4.0 6.0 0.00 0.30 0.30 89 1014.2
20260831005252 74 339 2.0 2.0 0.00 0.30 0.30 89 1014.2
20260831004746 74 96 5.0 6.0 0.00 0.30 0.30 89 1014.1
20260831004242 74 95 3.0 3.0 0.00 0.30 0.30 89 1014.1
20260831003738 74 153 4.0 6.0 0.00 0.30 0.30 88 1014.2
20260831003234 74 164 4.0 6.0 0.00 0.30 0.30 88 1014.3
20260831002733 74 228 3.0 3.0 0.00 0.30 0.30 88 1014.3
20260831002232 74 82 2.0 3.0 0.00 0.30 0.30 88 1014.2
20260831001729 74 61 3.0 4.0 0.00 0.30 0.30 88 1014.4
20260831001223 75 121 3.0 4.0 0.00 0.30 0.30 87 1014.4
20260831000720 75 101 3.0 3.0 0.00 0.30 0.30 86 1014.5
20260831000215 75 359 2.0 3.0 0.00 0.30 0.30 86 1014.8
20260830235714 75 134 3.0 4.0 0.00 0.30 0.30 85 1014.5
20260830235209 75 194 2.0 3.0 0.00 0.30 0.30 84 1014.7
20260830234704 75 14 2.0 2.0 0.00 0.30 0.30 85 1014.4
20260830234200 75 54 3.0 4.0 0.00 0.30 0.30 85 1014.5
20260830233655 75 87 5.0 7.0 0.00 0.30 0.30 85 1014.5
20260830233151 75 157 4.0 4.0 0.00 0.30 0.30 87 1014.7
20260830232646 75 61 2.0 3.0 0.00 0.30 0.30 87 1014.7
20260830232142 75 44 2.0 2.0 0.00 0.30 0.30 87 1015.0
20260830231638 74 336 3.0 4.0 0.00 0.30 0.30 86 1014.8
20260830231138 74 9 2.0 3.0 0.00 0.30 0.30 89 1014.8
20260830230633 74 237 3.0 4.0 0.00 0.30 0.30 89 1014.6
20260830230132 74 148 3.0 4.0 0.00 0.30 0.30 90 1014.6
20260830225628 74 149 4.0 6.0 0.00 0.30 0.30 89 1014.7
20260830225128 74 271 3.0 3.0 0.00 0.30 0.30 90 1014.7
20260830224627 74 347 0.0 0.0 0.00 0.30 0.30 90 1014.7
20260830224123 74 355 1.0 2.0 0.00 0.30 0.30 90 1014.5
20260830223620 74 355 1.0 1.0 0.00 0.30 0.30 90 1014.6
20260830223120 73 18 1.0 1.0 0.00 0.30 0.30 90 1014.4
20260830222620 73 8 0.0 0.0 0.00 0.30 0.30 90 1014.5
20260830222116 73 350 1.0 1.0 0.00 0.30 0.30 91 1014.7
20260830221612 73 1 1.0 2.0 0.00 0.30 0.30 91 1014.4
20260830221108 73 325 2.0 2.0 0.00 0.30 0.30 89 1014.7
20260830220603 73 350 1.0 1.0 0.00 0.30 0.30 89 1014.5
20260830220101 73 350 0.0 0.0 0.00 0.30 0.30 90 1014.4
20260830215600 72 351 0.0 0.0 0.00 0.30 0.30 91 1014.4
20260830215055 72 346 0.0 0.0 0.05 0.30 0.30 91 1014.4
20260830214550 73 153 4.0 4.0 0.05 0.30 0.30 90 1014.5
20260830214045 72 342 1.0 2.0 0.00 0.29 0.29 92 1014.6
20260830213540 72 315 2.0 2.0 0.00 0.29 0.29 92 1014.2
20260830213035 72 89 4.0 4.0 0.07 0.29 0.29 93 1014.3
20260830212530 72 340 0.0 0.0 0.19 0.29 0.29 95 1015.1
20260830212025 72 302 1.0 2.0 0.17 0.28 0.28 94 1014.5
20260830211520 72 309 3.0 3.0 0.12 0.26 0.26 93 1014.5
20260830211020 72 312 0.0 1.0 0.07 0.25 0.25 93 1013.9
20260830210515 72 69 2.0 2.0 0.14 0.25 0.25 92 1013.5
20260830210014 72 222 5.0 6.0 0.07 0.24 0.24 92 1013.4
20260830205512 72 120 3.0 3.0 0.05 0.23 0.23 93 1013.3
20260830205008 72 143 4.0 4.0 0.05 0.23 0.23 93 1013.5
20260830204506 72 293 3.0 4.0 0.07 0.22 0.22 92 1013.9
20260830204001 72 101 2.0 3.0 0.12 0.22 0.22 92 1013.9
20260830203457 72 190 9.0 14.0 0.12 0.21 0.21 92 1014.2
20260830202956 72 183 5.0 7.0 0.12 0.20 0.20 92 1014.3
20260830202451 72 202 6.0 7.0 0.12 0.19 0.19 91 1014.6
20260830201948 72 262 6.0 8.0 0.19 0.18 0.18 92 1014.4
20260830201446 72 217 8.0 10.0 0.17 0.17 0.17 93 1014.6
20260830200943 72 195 6.0 8.0 0.19 0.16 0.16 93 1015.0
20260830200442 72 212 7.0 8.0 0.19 0.14 0.14 93 1014.9
20260830195937 72 248 4.0 4.0 0.12 0.13 0.13 93 1015.6
20260830195432 72 307 2.0 2.0 0.07 0.11 0.11 92 1015.5
20260830194930 73 288 3.0 3.0 0.07 0.11 0.11 91 1015.7
20260830194430 72 313 1.0 1.0 0.00 0.10 0.10 91 1015.3
20260830193930 72 339 2.0 3.0 0.00 0.10 0.10 91 1015.4
20260830193428 73 310 2.0 2.0 0.00 0.10 0.10 91 1015.5
20260830192924 73 299 3.0 3.0 0.00 0.10 0.10 90 1015.4
20260830192420 72 291 2.0 3.0 0.00 0.10 0.10 90 1015.4
20260830191914 72 312 1.0 2.0 0.00 0.10 0.10 90 1015.3
20260830191414 72 287 2.0 2.0 0.00 0.10 0.10 91 1015.4
20260830190910 72 344 3.0 4.0 0.00 0.10 0.10 90 1015.1
20260830190405 72 215 4.0 4.0 0.00 0.10 0.10 90 1015.4
20260830185904 72 274 3.0 3.0 0.00 0.10 0.10 91 1015.5
20260830185359 72 280 5.0 7.0 0.00 0.10 0.10 91 1015.3
20260830184854 72 219 4.0 4.0 0.05 0.10 0.10 91 1015.4
20260830184353 71 343 1.0 2.0 0.05 0.10 0.10 91 1015.3
20260830183848 72 45 3.0 4.0 0.00 0.09 0.09 92 1015.3
20260830183348 72 335 2.0 2.0 0.07 0.09 0.09 91 1015.7
20260830182844 71 260 2.0 3.0 0.19 0.09 0.09 91 1015.7
20260830182339 71 273 2.0 3.0 0.17 0.08 0.08 91 1015.9
20260830181835 72 258 4.0 6.0 0.05 0.06 0.06 90 1016.0
20260830181331 72 275 3.0 4.0 0.07 0.05 0.05 90 1015.9
20260830180825 72 123 2.0 2.0 0.12 0.05 0.05 90 1015.9
20260830180324 72 241 6.0 8.0 0.05 0.04 0.04 89 1015.6
20260830175824 72 224 5.0 7.0 0.07 0.03 0.03 88 1015.6
20260830175319 72 247 4.0 6.0 0.07 0.03 0.03 88 1015.6
20260830174814 72 2 4.0 6.0 0.00 0.02 0.02 87 1015.4
20260830174310 73 271 5.0 6.0 0.05 0.02 0.02 86 1015.3
20260830173809 73 272 4.0 4.0 0.12 0.02 0.02 85 1015.0
20260830173305 74 258 4.0 6.0 0.07 0.01 0.01 83 1014.9
20260830172801 75 188 4.0 4.0 0.00 0.00 0.00 80 1015.3
20260830172257 76 309 4.0 4.0 0.00 0.00 0.00 77 1015.3
20260830171753 77 241 6.0 7.0 0.00 0.00 0.00 74 1015.3
20260830171248 77 255 8.0 9.0 0.00 0.00 0.00 72 1015.4
20260830170742 77 274 5.0 7.0 0.00 0.00 0.00 73 1015.3
20260830170242 77 240 5.0 6.0 0.00 0.00 0.00 73 1015.2
20260830165740 78 210 4.0 4.0 0.00 0.00 0.00 73 1015.0
20260830165236 78 257 4.0 4.0 0.00 0.00 0.00 73 1015.1
20260830164733 78 260 3.0 6.0 0.00 0.00 0.00 73 1015.0
20260830164228 78 229 4.0 6.0 0.00 0.00 0.00 72 1015.0
20260830163725 78 280 6.0 8.0 0.00 0.00 0.00 71 1014.9
20260830163220 78 188 4.0 4.0 0.00 0.00 0.00 71 1014.9
20260830162715 78 267 4.0 6.0 0.00 0.00 0.00 71 1014.8
20260830162211 78 254 5.0 7.0 0.00 0.00 0.00 70 1014.6
20260830161706 78 204 4.0 6.0 0.00 0.00 0.00 70 1014.6
20260830161200 78 225 4.0 4.0 0.00 0.00 0.00 69 1014.5
20260830160657 79 222 7.0 9.0 0.00 0.00 0.00 69 1014.2
20260830160156 79 281 3.0 4.0 0.00 0.00 0.00 69 1014.1
20260830155653 78 230 6.0 8.0 0.00 0.00 0.00 69 1014.1
20260830155149 78 278 2.0 3.0 0.00 0.00 0.00 69 1014.1
20260830154644 78 259 5.0 6.0 0.00 0.00 0.00 70 1013.9
20260830154140 78 110 6.0 8.0 0.00 0.00 0.00 69 1013.9
20260830153636 78 218 5.0 7.0 0.00 0.00 0.00 69 1013.9
20260830153136 79 293 4.0 7.0 0.00 0.00 0.00 68 1013.9
20260830152635 79 241 3.0 4.0 0.00 0.00 0.00 69 1014.0
20260830152134 78 222 5.0 6.0 0.00 0.00 0.00 69 1014.0
20260830151629 77 185 4.0 6.0 0.00 0.00 0.00 71 1014.1
20260830151124 77 206 3.0 4.0 0.00 0.00 0.00 73 1014.0
20260830150623 77 182 4.0 4.0 0.00 0.00 0.00 72 1014.1
20260830150118 77 199 5.0 6.0 0.00 0.00 0.00 72 1014.1
20260830145618 77 221 4.0 7.0 0.00 0.00 0.00 72 1013.9
20260830145113 77 220 4.0 4.0 0.00 0.00 0.00 73 1013.7
20260830144609 76 259 3.0 4.0 0.00 0.00 0.00 73 1013.6
20260830144104 76 247 2.0 3.0 0.00 0.00 0.00 75 1013.5
20260830143600 75 206 6.0 8.0 0.00 0.00 0.00 75 1013.5
20260830143058 74 219 2.0 4.0 0.00 0.00 0.00 77 1013.4
20260830142555 74 228 4.0 6.0 0.00 0.00 0.00 77 1013.4
20260830142054 74 179 6.0 7.0 0.00 0.00 0.00 77 1013.2
20260830141550 74 207 3.0 4.0 0.00 0.00 0.00 77 1013.2
20260830141050 75 210 3.0 4.0 0.00 0.00 0.00 76 1013.2
20260830140544 74 242 4.0 6.0 0.00 0.00 0.00 77 1013.3
20260830140040 74 164 1.0 2.0 0.00 0.00 0.00 78 1013.4
20260830135535 73 159 4.0 6.0 0.00 0.00 0.00 78 1013.4
20260830135030 73 199 6.0 7.0 0.00 0.00 0.00 78 1013.3
20260830134526 73 280 2.0 2.0 0.00 0.00 0.00 80 1013.4
20260830134021 73 241 3.0 6.0 0.00 0.00 0.00 81 1013.4
20260830133517 72 162 3.0 4.0 0.00 0.00 0.00 82 1013.4
20260830133012 72 56 1.0 2.0 0.00 0.00 0.00 83 1013.4
20260830132508 72 188 4.0 4.0 0.00 0.00 0.00 83 1013.4
20260830132008 72 169 3.0 4.0 0.00 0.00 0.00 82 1013.3
20260830131507 72 59 4.0 4.0 0.00 0.00 0.00 81 1013.5
20260830131001 72 88 4.0 4.0 0.00 0.00 0.00 80 1013.5
20260830130457 72 279 4.0 6.0 0.00 0.00 0.00 80 1013.6
20260830125956 71 55 4.0 4.0 0.00 0.00 0.00 80 1013.5
20260830125451 71 187 5.0 6.0 0.00 0.00 0.00 81 1013.7
20260830124950 71 209 4.0 4.0 0.00 0.00 0.00 81 1013.9
20260830124444 71 277 3.0 4.0 0.00 0.00 0.00 82 1013.9
20260830123941 71 192 3.0 4.0 0.00 0.00 0.00 82 1014.0
20260830123437 71 78 4.0 4.0 0.00 0.00 0.00 82 1013.7
20260830122935 71 101 4.0 4.0 0.00 0.00 0.00 82 1013.7
20260830122435 70 352 2.0 2.0 0.00 0.00 0.00 82 1014.0
20260830121930 70 313 1.0 1.0 0.00 0.00 0.00 82 1014.0
20260830121425 70 346 1.0 1.0 0.00 0.00 0.00 83 1013.7
20260830120920 70 288 2.0 3.0 0.00 0.00 0.00 83 1013.5
20260830120415 70 335 1.0 2.0 0.00 0.00 0.00 83 1013.5
20260830115912 70 286 3.0 4.0 0.00 0.00 0.00 83 1013.5
20260830115408 70 157 2.0 4.0 0.00 0.00 0.00 83 1013.4
20260830114902 70 43 3.0 3.0 0.00 0.00 0.00 83 1013.3
20260830114359 70 50 3.0 3.0 0.00 0.00 0.00 83 1013.3
20260830113859 70 194 2.0 3.0 0.00 0.00 0.00 84 1013.5
20260830113354 69 34 1.0 2.0 0.00 0.00 0.00 84 1013.4
20260830112850 69 148 2.0 3.0 0.00 0.00 0.00 85 1013.2
20260830112345 69 67 3.0 4.0 0.00 0.00 0.00 85 1013.2
20260830111841 69 143 3.0 3.0 0.00 0.00 0.00 85 1013.3
20260830111337 69 25 2.0 3.0 0.00 0.00 0.00 85 1013.4
20260830110837 69 40 2.0 2.0 0.00 0.00 0.00 85 1013.3
20260830110333 69 211 4.0 4.0 0.00 0.00 0.00 85 1013.5
20260830105832 69 34 2.0 2.0 0.00 0.00 0.00 85 1013.5
20260830105329 69 260 3.0 3.0 0.00 0.00 0.00 85 1013.5
20260830104825 69 320 2.0 2.0 0.00 0.00 0.00 85 1013.5
20260830104322 69 132 3.0 3.0 0.00 0.00 0.00 85 1013.6
20260830103820 69 307 3.0 4.0 0.00 0.00 0.00 85 1013.4
20260830103317 70 204 4.0 4.0 0.00 0.00 0.00 85 1013.4
20260830102814 70 210 3.0 3.0 0.00 0.00 0.00 85 1013.3
20260830102310 70 326 2.0 3.0 0.00 0.00 0.00 85 1013.4
20260830101806 70 199 3.0 4.0 0.00 0.00 0.00 84 1013.4
20260830101301 70 253 2.0 2.0 0.00 0.00 0.00 84 1013.6
20260830100800 70 202 4.0 4.0 0.00 0.00 0.00 84 1013.6
20260830100255 70 226 3.0 3.0 0.00 0.00 0.00 83 1013.6
20260830095753 71 138 2.0 2.0 0.00 0.00 0.00 83 1013.6
20260830095250 71 211 2.0 2.0 0.00 0.00 0.00 82 1013.7
20260830094746 71 6 1.0 2.0 0.00 0.00 0.00 82 1013.5
20260830094242 71 311 1.0 2.0 0.00 0.00 0.00 81 1013.7
20260830093737 71 353 1.0 1.0 0.00 0.00 0.00 81 1013.7
20260830093233 71 340 1.0 2.0 0.00 0.00 0.00 80 1013.5
20260830092732 72 221 3.0 4.0 0.00 0.00 0.00 80 1013.6
20260830092229 72 210 2.0 3.0 0.00 0.00 0.00 80 1013.6
20260830091725 72 281 3.0 4.0 0.00 0.00 0.00 79 1013.6
20260830091225 72 317 4.0 6.0 0.00 0.00 0.00 79 1013.6
20260830090724 72 241 4.0 6.0 0.00 0.00 0.00 79 1013.7
20260830090220 72 206 2.0 3.0 0.00 0.00 0.00 79 1013.9
20260830085719 72 208 5.0 6.0 0.00 0.00 0.00 78 1013.5
20260830085215 72 222 3.0 3.0 0.00 0.00 0.00 78 1013.6
20260830084710 72 205 5.0 6.0 0.00 0.00 0.00 78 1013.7
20260830084205 72 203 5.0 6.0 0.00 0.00 0.00 77 1013.7
20260830083700 73 197 4.0 6.0 0.00 0.00 0.00 77 1013.6
20260830083156 73 195 4.0 7.0 0.00 0.00 0.00 77 1013.5
20260830082655 73 200 3.0 4.0 0.00 0.00 0.00 77 1013.7
20260830082151 73 328 3.0 3.0 0.00 0.00 0.00 76 1013.5
20260830081647 73 239 4.0 6.0 0.00 0.00 0.00 76 1013.6
20260830081146 73 205 5.0 7.0 0.00 0.00 0.00 76 1013.5
20260830080641 73 237 6.0 7.0 0.00 0.00 0.00 76 1013.6
20260830080136 73 228 4.0 4.0 0.00 0.00 0.00 76 1013.5
20260830075636 73 248 4.0 6.0 0.00 0.00 0.00 76 1013.4
20260830075131 73 230 4.0 6.0 0.00 0.00 0.00 76 1013.5
20260830074627 73 189 6.0 9.0 0.00 0.00 0.00 76 1013.5
20260830074122 73 220 6.0 8.0 0.00 0.00 0.00 77 1013.5
20260830073619 73 209 4.0 7.0 0.00 0.00 0.00 77 1013.5
20260830073114 73 206 4.0 6.0 0.00 0.00 0.00 78 1013.6
20260830072609 73 227 6.0 7.0 0.00 0.00 0.00 78 1013.7
20260830072109 73 241 3.0 4.0 0.00 0.00 0.00 79 1013.9
20260830071605 73 201 3.0 3.0 0.00 0.00 0.00 79 1013.7
20260830071102 73 208 5.0 6.0 0.00 0.00 0.00 78 1013.9
20260830070557 73 241 6.0 7.0 0.00 0.00 0.00 79 1013.7